Miscellaneous Local Product
Issued by NWS Hastings, NE

Home | Current Version | Previous Version | Graphics & Text | Print | Product List | Glossary On
Versions: 1 2 3 4 5 6 7 8 9 10 11 12 13 14 15 16 17 18 19 20 21 22 23 24 25 26 27 28 29 30 31 32 33 34 35 36 37 38 39 40 41 42 43 44 45 46 47 48 49 50
000
AXUS43 KGID 290802
MISGRI

GID CWA HOURLY WEATHER ROUNDUP
NATIONAL WEATHER SERVICE HASTINGS NE
300 AM CDT WED JUL 29 2015

NOTE: "FAIR" INDICATES FEW OR NO CLOUDS BELOW 12,000 FEET WITH NO
SIGNIFICANT WEATHER AND/OR OBSTRUCTIONS TO VISIBILITY.

...SOUTH CENTRAL NEBRASKA...

CITY           SKY/WX    TMP DP  RH WIND       PRES   REMARKS
GRAND ISLAND   CLEAR     60  54  80 CALM      30.13R
HASTINGS       CLEAR     63  56  78 E3        30.13R
KEARNEY        CLEAR     61  52  72 CALM      30.15R
ORD            CLEAR     55  53  93 NW5       30.14R
YORK           CLEAR     59  57  94 CALM      30.12R
LEXINGTON      CLEAR     58  52  81 CALM      30.16R
HOLDREGE       CLEAR     58  55  88 NE3       30.15R
HEBRON         CLEAR     66  60  82 NE3       30.10R

...NEBRASKA PANHANDLE...

CITY           SKY/WX    TMP DP  RH WIND       PRES   REMARKS
CHADRON        CLEAR     48  42  80 SW6       30.24R
ALLIANCE       CLEAR     47  42  83 N5        30.24S
SCOTTSBLUFF    CLEAR     55  43  63 N3        30.25R
SIDNEY         CLEAR     49  41  74 W6        30.27R

...WESTERN AND NORTH CENTRAL NEBRASKA...

CITY           SKY/WX    TMP DP  RH WIND       PRES   REMARKS
VALENTINE      CLEAR     49  45  86 W6        30.17R
AINSWORTH      CLEAR     54  49  81 SW5       30.18R
ONEILL         CLEAR     58  54  85 SW3       30.14S
BROKEN BOW     CLEAR     58  48  69 N8        30.18R
IMPERIAL       CLEAR     59  49  69 NW3       30.21R
NORTH PLATTE   CLEAR     54  51  90 CALM      30.20R
MCCOOK         PTCLDY    60  54  80 CALM      30.17R

...EASTERN NEBRASKA...

CITY           SKY/WX    TMP DP  RH WIND       PRES   REMARKS
NORFOLK        CLEAR     59  55  87 CALM      30.11R
SO SIOUX CITY  CLEAR     61  58  90 W5        30.08S
TEKAMAH        PTCLDY    62  60  93 NW6       30.08R
COLUMBUS       CLEAR     55  52  88 NW3       30.11R
ALBION         CLEAR     55  52  88 CALM      30.13R
OMAHA EPPLEY   MOCLDY    65  62  90 NW7       30.06R
OFFUTT AFB     CLOUDY    68  61  77 N1        30.06R
MILLARD        MOCLDY    68  63  82 NW5       30.06S
LINCOLN        PTCLDY    62  60  93 N3        30.10R
NEBRASKA CITY  CLOUDY    70  58  65 N7        30.06R
BEATRICE       MOCLDY    66  64  96 CALM      30.09R
FALLS CITY     LGT RAIN  71  71 100 N10       30.03F

...NORTHERN KANSAS...

CITY           SKY/WX    TMP DP  RH WIND       PRES   REMARKS
GOODLAND       MOCLDY    61  50  67 CALM      30.21R
HILL CITY      MOCLDY    63  58  83 NE7       30.14R
NORTON         SUNNY     57  52  82 CALM      30.16R
PHILLIPSBURG   CLEAR     68  59  73 N6        30.13R
SMITH CENTER   CLEAR     64  59  82 NE8       30.12S
HAYS           CLOUDY    72  55  56 NE10      30.10S
RUSSELL        CLOUDY    73  61  65 NE9       30.07S
CONCORDIA      PTCLDY    67  61  81 E5        30.08S
SALINA         CLOUDY    69  60  73 NE15G23   30.06R
TOPEKA         CLOUDY    77  71  82 VRB6      30.03R



USA.gov is the U.S. government's official web portal to all federal, state and local government web resources and services.